Salina, KS

10:05 AM CDT on August 28, 2016 (GMT -0500)
Salina Municipal

Weather History for KSLN - April, 2014

Change the Weather History Date:

Saturday, April 5, 2014

  Actual Average Record
Temperature  
Mean Temperature 48 °F 52 °F  
Max Temperature 69 °F 64 °F 92 °F (2000)
Min Temperature 27 °F 40 °F 6 °F (1920)
Degree Days  
Heating Degree Days 17 14  
Month to date heating degree days 104 71  
Since 1 July heating degree days 5089 4521  
Cooling Degree Days 0 0  
Month to date cooling degree days 0 0  
Year to date cooling degree days 0 2  
Moisture  
Dew Point 28 °F    
Average Humidity 54    
Maximum Humidity 85    
Minimum Humidity 22    
Precipitation  
Precipitation 0.00 in 0.09 in 1.37 in (1999)
Month to date precipitation 0.08 0.45  
Year to date precipitation 2.19 4.64  
Sea Level Pressure  
Sea Level Pressure 30.06 in    
Wind  
Wind Speed 12 mph (SSE)    
Max Wind Speed 25 mph    
Max Gust Speed 31 mph    
Visibility 9 miles    
Events      
T = Trace of Precipitation, MM = Missing Value Source: NWS Daily Summary

Daily Weather History Graph

Daily Weather History Graph

Search for Another Location

Airport or City:

Trip Planner

Search our weather history database for the weather conditions in past years. The results will help you decide how hot, cold, wet, or windy it might be!

Date:

Astronomy

Apr. 05, 2014 Rise Set
Actual Time 7:09 AM CDT 7:58 PM CDT
Civil Twilight 6:42 AM CDT 8:25 PM CDT
Nautical Twilight 6:10 AM CDT 8:57 PM CDT
Astronomical Twilight 5:37 AM CDT 9:30 PM CDT
Moon 11:20 AM CDT (4/5) 1:06 AM CDT (4/5)
Length of Visible Light 13h 42m
Length of Day
12h 48m
Waxing Crescent, 34% of the Moon is Illuminated
Apr 5
Waxing Crescent
Apr 7
First Quarter
Apr 15
Full
Apr 22
Last Quarter
Apr 29
New

Hourly Weather History & Observations

Time (CDT) Temp. Windchill Dew Point Humidity Pressure Visibility Wind Dir Wind Speed Gust Speed Precip Events Conditions
12:53 AM 37.0 °F 31.6 °F 28.0 °F 70% 30.16 in 10.0 mi SE 6.9 mph - N/A   Clear
1:53 AM 37.0 °F 31.6 °F 27.0 °F 67% 30.14 in 10.0 mi ESE 6.9 mph - N/A   Clear
2:53 AM 30.9 °F 24.3 °F 26.1 °F 82% 30.15 in 9.0 mi South 6.9 mph - N/A   Clear
3:53 AM 28.9 °F 21.1 °F 25.0 °F 85% 30.15 in 9.0 mi South 8.1 mph - N/A   Clear
4:53 AM 30.0 °F 23.2 °F 25.0 °F 82% 30.14 in 10.0 mi SSE 6.9 mph - N/A   Partly Cloudy
5:53 AM 28.0 °F 22.8 °F 23.0 °F 81% 30.14 in 9.0 mi South 4.6 mph - N/A   Clear
6:53 AM 30.0 °F 24.1 °F 25.0 °F 82% 30.14 in 9.0 mi SSE 5.8 mph - N/A   Partly Cloudy
7:53 AM 34.0 °F 28.8 °F 27.0 °F 75% 30.15 in 9.0 mi SE 5.8 mph - N/A   Clear
8:53 AM 39.9 °F 33.9 °F 30.0 °F 68% 30.14 in 9.0 mi SSE 9.2 mph - N/A   Clear
9:53 AM 48.0 °F - 30.0 °F 50% 30.14 in 10.0 mi South 13.8 mph - N/A   Clear
10:53 AM 54.0 °F - 30.0 °F 40% 30.12 in 10.0 mi South 13.8 mph - N/A   Clear
11:53 AM 57.9 °F - 28.9 °F 33% 30.10 in 10.0 mi South 15.0 mph - N/A   Clear
12:53 PM 63.0 °F - 27.0 °F 26% 30.08 in 10.0 mi South 16.1 mph 21.9 mph N/A   Clear
1:53 PM 64.9 °F - 27.0 °F 24% 30.04 in 10.0 mi SSE 20.7 mph 29.9 mph N/A   Clear
2:53 PM 68.0 °F - 28.9 °F 23% 30.00 in 10.0 mi South 20.7 mph 26.5 mph N/A   Clear
3:53 PM 68.0 °F - 28.0 °F 22% 29.97 in 10.0 mi South 23.0 mph 31.1 mph N/A   Clear
4:53 PM 66.9 °F - 27.0 °F 22% 29.96 in 10.0 mi South 20.7 mph 27.6 mph N/A   Scattered Clouds
5:53 PM 64.9 °F - 27.0 °F 24% 29.96 in 10.0 mi SSE 17.3 mph - N/A   Clear
6:53 PM 63.0 °F - 28.9 °F 28% 29.96 in 10.0 mi SSE 13.8 mph - N/A   Clear
7:53 PM 59.0 °F - 28.0 °F 31% 29.97 in 9.0 mi SSE 11.5 mph - N/A   Clear
8:53 PM 55.0 °F - 30.0 °F 38% 29.97 in 10.0 mi SE 9.2 mph - N/A   Clear
9:53 PM 54.0 °F - 30.0 °F 40% 29.99 in 5.0 mi SE 9.2 mph - N/A   Haze
10:53 PM 54.0 °F - 30.9 °F 41% 29.99 in 5.0 mi SSE 10.4 mph - N/A   Haze
11:53 PM 54.0 °F - 30.0 °F 40% 29.99 in 4.0 mi South 11.5 mph 18.4 mph N/A   Haze